This demonstration page uses our WeatherBlox Daily Observations layout. Learn more.

40.92945, -100.16068

Hourly Observations for June 5, 2019

Temp ( °F °C ) Dew Point ( °F °C ) Humidity (%) Winds ( mph kmh ) Pressure ( in mb ) Visibility ( mi km ) Precip ( " mm )
12:15 am 00:15 Partly Cloudy 65 18.1 58 14.3 79 79 NW 10 17 29.74 1007 10 16.09344 0 0
12:35 am 00:35 Clear 65 18.5 56 13.3 72 72 NNW 12 19 29.74 1007 10 16.09344 0 0
12:55 am 00:55 Clear 63 17.2 57 13.7 80 80 NNW 13 20 29.8 1009 10 16.09344 0 0
1:15 am 01:15 Clear 61 16.3 56 13.5 84 84 NW 10 17 29.8 1009 10 16.09344 0 0
1:35 am 01:35 Clear 61 16 56 13.5 85 85 NNW 6 9 29.8 1009 7 11.265408 0 0
1:55 am 01:55 Clear 61 16 56 13.5 85 85 WNW 8 13 29.83 1010 10 16.09344 0 0
2:15 am 02:15 Clear 62 16.5 58 14.3 87 87 W 10 17 29.83 1010 10 16.09344 0 0
2:35 am 02:35 Clear 62 16.9 58 14.4 85 85 WNW 9 15 29.83 1010 10 16.09344 0 0
2:55 am 02:55 Clear 63 17.1 58 14.4 84 84 WNW 9 15 29.83 1010 10 16.09344 0 0
3:15 am 03:15 Partly Cloudy 63 17.1 58 14.4 84 84 WNW 9 15 29.83 1010 10 16.09344 0 0
3:35 am 03:35 Partly Cloudy 62 16.6 58 14.2 86 86 NW 7 11 29.83 1010 10 16.09344 0 0
3:55 am 03:55 Clear 60 15.8 57 14 89 89 WNW 9 15 29.83 1010 10 16.09344 0 0
4:15 am 04:15 Clear 59 15.2 57 13.8 91 91 WNW 7 11 29.88 1012 10 16.09344 0 0
4:35 am 04:35 Clear 59 14.8 56 13.6 93 93 WNW 6 9 29.88 1012 10 16.09344 0 0
4:55 am 04:55 Clear 58 14.7 57 13.7 94 94 WNW 9 15 29.88 1012 10 16.09344 0 0
5:15 am 05:15 Clear 59 14.9 57 13.7 93 93 WNW 8 13 29.88 1012 10 16.09344 0 0
5:35 am 05:35 Partly Cloudy 59 15 57 13.7 92 92 WNW 8 13 29.88 1012 10 16.09344 0 0
5:55 am 05:55 Partly Cloudy 58 14.7 57 13.7 94 94 WNW 7 11 29.88 1012 10 16.09344 0 0
6:15 am 06:15 Sunny 58 14.7 56 13.6 93 93 WNW 9 15 29.88 1012 10 16.09344 0 0
6:35 am 06:35 Sunny 59 14.8 56 13.6 93 93 WNW 9 15 29.88 1012 10 16.09344 0 0
6:55 am 06:55 Sunny 59 15 57 13.7 92 92 WNW 7 11 29.88 1012 10 16.09344 0 0
7:15 am 07:15 Sunny 60 15.3 57 13.8 91 91 WNW 8 13 29.91 1013 10 16.09344 0 0
7:35 am 07:35 Sunny 60 15.5 57 13.7 89 89 WNW 8 13 29.91 1013 10 16.09344 0 0
7:55 am 07:55 Sunny 61 16.3 57 14.1 87 87 WNW 8 13 29.85 1011 10 16.09344 0 0
8:15 am 08:15 Sunny 63 17.4 58 14.7 84 84 WNW 7 11 29.88 1012 10 16.09344 0 0
8:35 am 08:35 Sunny 65 18.3 60 15.3 83 83 NNW 8 13 29.88 1012 10 16.09344 0 0
8:55 am 08:55 Partly Cloudy 67 19.3 61 16.1 82 82 NW 8 13 29.85 1011 10 16.09344 0 0
9:15 am 09:15 Mostly Cloudy 69 20.4 62 16.9 80 80 NW 7 11 29.85 1011 10 16.09344 0 0
9:35 am 09:35 Mostly Cloudy 71 21.5 64 17.6 79 79 NNW 6 9 29.85 1011 10 16.09344 0 0
9:55 am 09:55 Sunny 73 22.7 63 17.3 72 72 N 6 9 29.85 1011 10 16.09344 0 0
10:15 am 10:15 Sunny 74 23.3 64 17.8 71 71 Calm 29.83 1010 10 16.09344 0 0
10:35 am 10:35 Sunny 76 24.7 65 18.2 67 67 NNE 6 9 29.83 1010 10 16.09344 0 0
10:55 am 10:55 Partly Cloudy 77 25.1 65 18.6 67 67 NNE 8 13 29.83 1010 10 16.09344 0 0
11:15 am 11:15 Partly Cloudy 78 25.5 66 18.7 66 66 N 7 11 29.83 1010 10 16.09344 0 0
11:35 am 11:35 Sunny 78 25.6 62 16.9 59 59 N 8 13 29.83 1010 10 16.09344 0 0
11:55 am 11:55 Sunny 78 25.7 60 15.8 54 54 N 15 24 29.83 1010 10 16.09344 0 0
12:15 pm 12:15 Sunny 79 26.1 60 15.4 52 52 N 13 20 29.83 1010 10 16.09344 0 0
12:35 pm 12:35 Sunny 79 26.2 60 15.3 51 51 N 17 28 29.83 1010 10 16.09344 0 0
12:55 pm 12:55 Sunny 80 26.5 59 15.2 50 50 N 17 28 29.8 1009 10 16.09344 0 0
1:15 pm 13:15 Sunny 80 26.5 60 15.7 52 52 NNE 16 26 29.8 1009 10 16.09344 0 0
1:35 pm 13:35 Sunny 80 26.8 60 15.6 50 50 N 13 20 29.77 1008 10 16.09344 0 0
1:55 pm 13:55 Sunny 80 26.9 59 14.9 48 48 N 13 20 29.77 1008 10 16.09344 0 0
2:15 pm 14:15 Sunny 80 26.9 57 14.1 45 45 N 13 20 29.77 1008 10 16.09344 0 0
2:35 pm 14:35 Sunny 80 26.9 59 15 48 48 N 13 20 29.77 1008 10 16.09344 0 0
2:55 pm 14:55 Sunny 81 27 58 14.6 47 47 N 12 19 29.77 1008 10 16.09344 0 0
3:15 pm 15:15 Partly Cloudy 81 27 60 15.4 49 49 N 8 13 29.77 1008 10 16.09344 0 0
3:35 pm 15:35 Partly Cloudy 80 26.8 59 15.1 49 49 NNE 14 22 29.77 1008 10 16.09344 0 0
3:55 pm 15:55 Partly Cloudy 79 26.3 59 15 50 50 N 13 20 29.77 1008 10 16.09344 0 0
4:15 pm 16:15 Partly Cloudy 80 26.7 58 14.3 47 47 N 12 19 29.77 1008 10 16.09344 0 0
4:35 pm 16:35 Partly Cloudy 80 26.4 59 14.8 49 49 NE 14 22 29.77 1008 10 16.09344 0 0
4:55 pm 16:55 Partly Cloudy 81 27 60 15.7 50 50 NE 8 13 29.77 1008 10 16.09344 0 0
5:15 pm 17:15 Sunny 80 26.6 57 13.7 45 45 NE 9 15 29.77 1008 10 16.09344 0 0
5:35 pm 17:35 Sunny 80 26.4 56 13.5 45 45 NNE 12 19 29.77 1008 10 16.09344 0 0
5:55 pm 17:55 Sunny 79 26.2 58 14.4 48 48 NNE 7 11 29.77 1008 10 16.09344 0 0
6:15 pm 18:15 Sunny 79 26 57 13.8 47 47 NNE 8 13 29.77 1008 10 16.09344 0 0
6:35 pm 18:35 Sunny 79 26 57 13.8 47 47 N 7 11 29.77 1008 10 16.09344 0 0
6:55 pm 18:55 Sunny 79 25.9 55 12.9 45 45 N 7 11 29.8 1009 10 16.09344 0 0
7:15 pm 19:15 Sunny 78 25.5 56 13.1 46 46 NE 7 11 29.8 1009 10 16.09344 0 0
7:35 pm 19:35 Sunny 76 24.7 59 15 55 55 NE 8 13 29.8 1009 10 16.09344 0 0
7:55 pm 19:55 Sunny 76 24.2 58 14.3 54 54 NE 8 13 29.8 1009 10 16.09344 0 0
8:15 pm 20:15 Sunny 74 23.6 58 14.5 57 57 NNE 7 11 29.8 1009 10 16.09344 0 0
8:35 pm 20:35 Sunny 73 22.7 59 15.2 63 63 NE 7 11 29.8 1009 10 16.09344 0 0
8:55 pm 20:55 Sunny 71 21.6 60 15.8 70 70 N 6 9 29.83 1010 10 16.09344 0 0
9:15 pm 21:15 Clear 70 21 61 16 73 73 NNE 6 9 29.83 1010 10 16.09344 0 0
9:35 pm 21:35 Clear 69 20.5 60 15.7 74 74 NNE 6 9 29.83 1010 10 16.09344 0 0
9:55 pm 21:55 Clear 68 19.9 60 15.6 76 76 NNE 7 11 29.83 1010 10 16.09344 0 0
10:15 pm 22:15 Clear 67 19.2 60 15.7 80 80 NNE 6 9 29.83 1010 10 16.09344 0 0
10:35 pm 22:35 Clear 66 18.7 60 15.5 82 82 NNE 7 11 29.88 1012 10 16.09344 0 0
10:55 pm 22:55 Clear 65 18.3 60 15.5 84 84 NE 7 11 29.88 1012 10 16.09344 0 0
11:15 pm 23:15 Clear 64 17.6 59 15.1 85 85 ENE 6 9 29.88 1012 10 16.09344 0 0
11:35 pm 23:35 Clear 65 18.1 59 15 82 82 NE 8 13 29.88 1012 10 16.09344 0 0
11:55 pm 23:55 Clear 64 17.7 59 15 84 84 ENE 6 9 29.88 1012 10 16.09344 0 0

Powered by AerisWeather